Regional Weather Roundup
Issued by NWS

Home | Current Version | Previous Version | Text Only | Print | Product List | Glossary On
Versions: 1 2 3 4 5 6 7 8 9 10 11 12 13 14 15 16 17 18 19 20 21 22 23 24 25 26 27 28 29 30 31 32 33 34 35 36 37 38 39 40 41 42 43 44 45 46 47 48 49 50
000
ASUS45 KBOI 210310
RWRID

IDAHO REGIONAL WEATHER ROUNDUP
NATIONAL WEATHER SERVICE BOISE ID
900 PM MDT THU JUL 20 2017

NOTE: "FAIR" INDICATES FEW OR NO CLOUDS BELOW 12000 FEET
WITH NO SIGNIFICANT WEATHER AND/OR OBSTRUCTIONS TO VISIBILITY

IDZ012-014-210400-
SOUTHWEST IDAHO


CITY           SKY/WX    TMP DP  RH WIND       PRES   REMARKS
BOISE          CLEAR     86  36  16 N10       29.93S
CALDWELL       CLEAR     83  47  28 VRB5      29.91F
MOUNTAIN HOME  CLEAR     88  38  17 NW10      29.94R
$$

IDZ016-017-210400-
SOUTHCENTRAL IDAHO


CITY           SKY/WX    TMP DP  RH WIND       PRES   REMARKS
BURLEY         CLEAR     70  51  51 SW8       30.00S
JEROME         CLEAR     79  39  23 CALM      30.00R
TWIN FALLS     CLEAR     76  44  32 W10       30.00F
$$

IDZ019>023-210400-
SOUTHEAST IDAHO


CITY           SKY/WX    TMP DP  RH WIND       PRES   REMARKS
IDAHO FALLS    CLEAR     79  45  29 S12       30.01R
POCATELLO      CLEAR     78  38  23 S9        30.01S
REXBURG        CLEAR     74  43  32 S9        30.00R
$$

IDZ006-010-011-018-031-032-210400-
CENTRAL IDAHO MOUNTAINS


CITY           SKY/WX    TMP DP  RH WIND       PRES   REMARKS
MCCALL         CLEAR     74  27  17 NW6       30.10R
HAILEY         CLEAR     75  27  16 NW7       30.09R
STANLEY          N/A     69  31  24 CALM      30.20R
SALMON         NOT AVBL
CHALLIS        CLEAR     80  21  11 SW10      30.03R
$$

IDZ002-004-006-007-026-210400-
NORTHERN IDAHO


CITY           SKY/WX    TMP DP  RH WIND       PRES   REMARKS
LEWISTON       PTCLDY    79  36  21 NW14G23   29.97R
LOWELL           N/A     73  53  49 CALM      29.97R
COEUR D`ALENE  CLEAR     71  43  36 SW12      30.01R
MULLAN PASS    CLEAR     57  33  40 VRB5      30.16S
$$



USA.gov is the U.S. government's official web portal to all federal, state and local government web resources and services.